Regional Weather Roundup
Issued by NWS Northern Indiana

Home | Current Version | Previous Version | Graphics & Text | Print | Product List | Glossary On
Versions: 1 2 3 4 5 6 7 8 9 10 11 12 13 14 15 16 17 18 19 20 21 22 23 24 25 26 27 28 29 30 31 32 33 34 35 36 37 38 39 40 41 42 43 44 45 46 47 48 49 50
000
ASUS43 KIWX 281100
RWRIWX

KIWX WEATHER ROUNDUP
NATIONAL WEATHER SERVICE NORTHERN INDIANA
700 AM EDT FRI APR 28 2017

NOTE: "FAIR" INDICATES FEW OR NO CLOUDS BELOW 12,000 FEET WITH NO
SIGNIFICANT WEATHER AND/OR OBSTRUCTIONS TO VISIBILITY.

* THESE STATIONS ARE NOT UNDER NWS QUALITY CONTROL. THEY ALSO MAY NOT
  REPORT WEATHER SUCH AS PRECIPITATION OR FOG.

INZ001>027-281200-
NORTHERN INDIANA

CITY           SKY/WX    TMP DP  RH WIND       PRES   REMARKS
GARY*          MOCLDY    45  43  93 VRB3      29.93R
SOUTH BEND     MOCLDY    43  40  89 S3        29.91R
ELKHART*       CLOUDY    41  39  93 CALM      29.90
GOSHEN         CLOUDY    44  38  79 S6        29.91R
MONTICELLO*    CLOUDY    45  41  88 S5        29.95R
ANGOLA*        PTCLDY    43  39  87 CALM      29.91R
FORT WAYNE     CLOUDY    45  41  86 S5        29.93R
PERU/GRISSOM   MOCLDY    44  44  99 S6        29.95R

$$
INZ028>050-281200-
CENTRAL INDIANA

CITY           SKY/WX    TMP DP  RH WIND       PRES   REMARKS
LAFAYETTE      CLOUDY    45  43  93 CALM      29.96R
KOKOMO*        CLOUDY    46  43  89 S5        29.97R
MUNCIE*        CLOUDY    47  42  83 S3        29.95R
INDIANAPOLIS   CLOUDY    48  44  86 NE13      29.92R

$$
MIZ043>046-050>051-056>058-064>065-071>073-077>080-281200-
SOUTHWEST LOWER MICHIGAN

CITY           SKY/WX    TMP DP  RH WIND       PRES   REMARKS
BATTLE CREEK   MOCLDY    42  37  82 CALM      29.91S
BENTON HARBOR  CLOUDY    41  38  89 CALM      29.91R
COLDWATER*     CLOUDY    42  39  89 CALM      29.91S
HILLSDALE*     MOCLDY    41  37  87 SE6       29.91S
HOLLAND        CLOUDY    45  37  73 W8        29.90R
GRAND RAPIDS   CLOUDY    45  37  73 SW9       29.89S
KALAMAZOO      CLOUDY    40  35  83 CALM      29.91S
STURGIS*       MOCLDY    41  38  90 SE3       29.90R
THREE RIVERS*  MOCLDY    43  39  87 CALM      29.91R

$$
OHZ001>008-015>018-024>025-281200-
NORTHWEST OHIO

CITY           SKY/WX    TMP DP  RH WIND       PRES   REMARKS
DEFIANCE       CLOUDY    44  38  79 SE6       29.93F
FINDLAY        CLEAR     43  39  86 SE6       29.97S
TOLEDO EXPRESS CLOUDY    42  39  89 S6        29.96R
TOLEDO METCALF PTCLDY    43  40  89 S7        29.97F
LIMA           CLOUDY    43  42  97 E7        29.94F

$$
AND FOR LAKE MICHIGAN COASTAL AND OPEN LAKE BUOY OBSERVATIONS

STATION/POSITION TEMP    WIND        PRES    VSBY  WAVE
                 AIR SEA DIR/SP/G                  HT/PER
                 (F)     (DEG/KT/KT) (MB)    (MI)  (FT/S)
CALUMET HARBOR    44      CALM  /  2 1011.9R
MICHIGAN CITY     45     360/  4/  5   N/A
BURNS HARBOR      47        CALM     1013.2R
SOUTH LAKE BUOY   42 41  280/  6/  6 1012.3          2/ 4
4 MI NW BRIDGMAN  45 48  120/  2/  2 1013.4R         1/ 4
MICHIGAN CITY     45 46                N/A           1

$$
&&




USA.gov is the U.S. government's official web portal to all federal, state and local government web resources and services.